Location: Borovka
(49.7741°N, 14.5280°E)
Time: 15:33:34
(UTC+00:00)

Thor Agena Rocket - Pass Details

Date: 16 February 2026
Orbit: 755 x 801 km, 99.1° (Epoch: 7 March)

Event Time Altitude Azimuth Distance (km) Brightness Sun altitude
Rises 04:36:34 0° 25° (NNE) 3,315 7.1 -15.7°
Reaches altitude 10° 04:39:22 10° 40° (NE) 2,384 6.6 -15.3°
Maximum altitude 04:43:34 24° 93° (E) 1,625 6.2 -14.6°
Drops below altitude 10° 04:47:44 10° 145° (SE) 2,374 6.6 -13.9°
Sets 04:50:30 0° 160° (SSE) 3,297 7.1 -13.5°
